STARLINK-3295 (50840 NORAD) Tracking and Keplerian Element Data

This shows tracking and keplerian element data for the satellite.

Feedback or suggestion? Click here.




ElementValue
Catalog50840
NameSTARLINK-3295
Epoch Orbit383
Epoch Day22.91667824
Epoch Year2022
RAAN119.7462
Inclination53.2175
Eccentricity0.0001012
Argument of Perigee81.0611
Mean Anonmoly240.903
Mean Motion15.75405354
Decay Rate-0.00821078
L11 50840U 22001AP 22022.91667824 -.00821078 00000+0 -58512-2 0 9993
L22 50840 53.2175 119.7462 0001012 81.0611 240.9030 15.75405354 3834

Live tracking and technical data element details for STARLINK-3295 (NORAD 50840). STARLINK-3295 can be tracked NOW for your location showing map with azimuth and elevation plus other details from your city location.

Track the satellite on the map from your city or location and see movement details for azimuth, elevation, latitude, longitude, range, height, and movement on the map or in text.







IsCatalogInMostPopularTable: catalog: 50840, numindb: 3
Update: records affected: 1



GetName: 50840 STARLINK-3295

Hit Count: updated at: Mon, 24 Jan 2022 00:04:29 GMT